Wolf Point, MT

5:10 PM MDT on April 22, 2018 (GMT -0600)
Clayton

Weather History for KOLF - February, 2013

Change the Weather History Date:

Thursday, February 28, 2013

  Actual Average Record
Temperature  
Mean Temperature 30 °F -  
Max Temperature 39 °F 35 °F 64 °F (2011)
Min Temperature 21 °F 11 °F -12 °F (2009)
Degree Days  
Heating Degree Days 35    
Cooling Degree Days 0    
Moisture  
Dew Point 23 °F    
Average Humidity 81    
Maximum Humidity 93    
Minimum Humidity 57    
Precipitation  
Precipitation 0.00 in 0.02 in 0.16 in (2006)
Month to date precipitation 0.09 0.21  
Year to date precipitation 0.20 0.52  
Sea Level Pressure  
Sea Level Pressure 30.26 in    
Wind  
Wind Speed 6 mph (North)    
Max Wind Speed 13 mph    
Max Gust Speed -    
Visibility 7 miles    
Events      
T = Trace of Precipitation, MM = Missing Value Source: NWS Daily Summary

Daily Weather History Graph

Daily Weather History Graph

Search for Another Location

Airport or City:

Astronomy

Feb. 28, 2013 Rise Set
Actual Time 6:44 AM MST 5:45 PM MST
Civil Twilight 6:13 AM MST 6:16 PM MST
Nautical Twilight 5:37 AM MST 6:52 PM MST
Astronomical Twilight 5:01 AM MST 7:29 PM MST
Moon 9:36 PM MST (2/28) 7:38 AM MST (2/28)
Length of Visible Light 12h 03m
Length of Day
11h 00m
Waning Gibbous, 90% of the Moon is Illuminated
Feb 28
Waning Gibbous
Mar 4
Last Quarter
Mar 11
New
Mar 19
First Quarter
Mar 27
Full

Hourly Weather History & Observations

Time (MST) Temp. Windchill Dew Point Humidity Pressure Visibility Wind Dir Wind Speed Gust Speed Precip Events Conditions
12:53 AM 23.0 °F 15.8 °F 21.0 °F 92% 30.31 in 5.0 mi East 5.8 mph - N/A   Overcast
1:53 AM 21.9 °F 17.2 °F 19.9 °F 92% 30.31 in 5.0 mi NE 3.5 mph - N/A   Scattered Clouds
2:53 AM 21.9 °F 14.5 °F 19.9 °F 92% 30.30 in 4.0 mi ENE 5.8 mph - N/A   Overcast
3:53 AM 24.1 °F 16.0 °F 21.9 °F 91% 30.28 in 4.0 mi ENE 6.9 mph - N/A   Overcast
4:53 AM 24.1 °F 17.0 °F 21.9 °F 91% 30.27 in 4.0 mi ENE 5.8 mph - N/A   Overcast
5:53 AM 24.1 °F 17.0 °F 21.9 °F 91% 30.27 in 4.0 mi ENE 5.8 mph - N/A   Overcast
6:53 AM 21.9 °F 14.5 °F 19.9 °F 92% 30.27 in 2.5 mi ENE 5.8 mph - N/A   Clear
7:53 AM 23.0 °F 17.0 °F 21.0 °F 92% 30.26 in 2.5 mi ENE 4.6 mph - N/A   Scattered Clouds
8:09 AM 24.8 °F 19.1 °F 21.2 °F 86% 30.17 in 3.0 mi ENE 4.6 mph - N/A   Clear
8:20 AM 24.8 °F 20.5 °F 21.2 °F 86% 30.17 in 2.5 mi East 3.5 mph - N/A   Clear
8:27 AM 24.8 °F 19.1 °F 23.0 °F 93% 30.16 in 3.0 mi East 4.6 mph - N/A   Clear
8:53 AM 27.0 °F 21.6 °F 24.1 °F 89% 30.25 in 4.0 mi East 4.6 mph - N/A   Clear
9:53 AM 30.0 °F 25.2 °F 24.1 °F 79% 30.25 in 10.0 mi WSW 4.6 mph - N/A   Clear
10:53 AM 33.1 °F 28.7 °F 25.0 °F 72% 30.24 in 10.0 mi West 4.6 mph - N/A   Clear
11:53 AM 35.1 °F 27.9 °F 26.1 °F 70% 30.24 in 10.0 mi WSW 9.2 mph - N/A   Clear
12:53 PM 36.0 °F 30.3 °F 26.1 °F 67% 30.22 in 10.0 mi West 6.9 mph - N/A   Clear
1:53 PM 37.0 °F 30.4 °F 27.0 °F 67% 30.22 in 10.0 mi West 9.2 mph - N/A   Clear
2:53 PM 37.9 °F 30.0 °F 24.1 °F 57% 30.23 in 10.0 mi WNW 12.7 mph - N/A   Clear
3:53 PM 37.9 °F 30.9 °F 25.0 °F 60% 30.23 in 10.0 mi NW 10.4 mph - N/A   Clear
4:53 PM 37.0 °F 31.6 °F 26.1 °F 65% 30.25 in 10.0 mi NNW 6.9 mph - N/A   Scattered Clouds
5:53 PM 32.0 °F 24.8 °F 25.0 °F 75% 30.27 in 10.0 mi WNW 8.1 mph - N/A   Clear
6:53 PM 30.0 °F 26.5 °F 23.0 °F 75% 30.30 in 10.0 mi WNW 3.5 mph - N/A   Clear
7:53 PM 28.0 °F - 21.9 °F 78% 30.31 in 10.0 mi Calm Calm - N/A   Clear
8:53 PM 26.1 °F 20.5 °F 21.0 °F 81% 30.32 in 10.0 mi WSW 4.6 mph - N/A   Clear
9:53 PM 25.0 °F 17.1 °F 21.0 °F 85% 30.34 in 10.0 mi West 6.9 mph - N/A   Clear
10:53 PM 24.1 °F - 19.9 °F 84% 30.33 in 10.0 mi Calm Calm - N/A   Clear
11:53 PM 21.9 °F - 19.0 °F 89% 30.32 in 10.0 mi Calm Calm - N/A   Clear